Hourly Data Report for November 29, 2016

All times are specified in Local Standard Time (LST). Add 1 hour to adjust for Daylight Saving Time where and when it is observed.

VICTORIA UNIVERSITY CS
BRITISH COLUMBIA

48°27'25.200" N
123°18'16.600" W
60.10 m
1018598
71783
WYJ

Download Data

Hourly Data (November 2016)
Hourly Data Report for November 29, 2016
TIME Temp Definition
°C
Dew Point Definition
°C
Rel Hum Definition
%
Wind Dir Definition
10's deg

Wind Spd Definition
km/h
Visibility Definition
km
Stn Press Definition
kPa
Hmdx Definition


Wind Chill Definition


Weather Definition


00:00 6.1 4.8 91 36 4   101.28     LegendNANA
01:00 5.9 4.9 93 34 4   101.31     LegendNANA
02:00 6.1 5.1 93 36 4   101.36     LegendNANA
03:00 5.7 4.9 95 29 2   101.37     LegendNANA
04:00 5.5 4.8 95 32 1   101.34     LegendNANA
05:00 6.4 5.7 95 3 1   101.37     LegendNANA
06:00 6.8 6.3 97 4 1   101.37     LegendNANA
07:00 7.1 6.6 97 30 1   101.35     LegendNANA
08:00 7.3 6.8 97 22 2   101.36     LegendNANA
09:00 7.1 6.8 97 6 2   101.37     LegendNANA
10:00 7.9 6.8 93 15 4   101.39     LegendNANA
11:00 8.5 6.7 89 12 2   101.38     LegendNANA
12:00 9.0 7.0 88 10 3   101.29     LegendNANA
13:00 9.0 6.6 85 11 4   101.20     LegendNANA
14:00 8.4 6.0 85 9 6   101.09     LegendNANA
15:00 8.1 5.5 84 10 3   100.99     LegendNANA
16:00 8.3 6.1 86 13 2   100.84     LegendNANA
17:00 8.4 5.8 84 9 3   100.74     LegendNANA
18:00 8.7 6.3 85 14 5   100.58     LegendNANA
19:00 8.6 6.1 84 11 4   100.42     LegendNANA
20:00 7.9 5.5 85 14 4   100.30     LegendNANA
21:00 8.3 5.0 80 13 3   100.23     LegendNANA
22:00 7.7 4.0 77 0 1   100.13     LegendNANA
23:00 7.3 4.6 83 12 2   100.07     LegendNANA

Notes on Data Quality.

Legend

  • E = Estimated
  • M = Missing
  • NA = Not Available
Date modified: